TimeCDT,TemperatureF,Dew PointF,Humidity,Sea Level PressureIn,VisibilityMPH,Wind Direction,Wind SpeedMPH,Gust SpeedMPH,PrecipitationIn,Events,Conditions,WindDirDegrees,DateUTC
12:15 AM,35.6,30.2,81,29.70,10.0,West,6.9,-,N/A,,Mostly Cloudy,260,2013-10-20 05:15:00
12:35 AM,35.6,30.2,81,29.70,10.0,WSW,8.1,-,N/A,,Scattered Clouds,250,2013-10-20 05:35:00
12:55 AM,35.6,30.2,81,29.70,10.0,WSW,5.8,-,N/A,,Overcast,250,2013-10-20 05:55:00
1:15 AM,33.8,28.4,81,29.70,10.0,WSW,6.9,-,N/A,,Overcast,250,2013-10-20 06:15:00
1:35 AM,33.8,30.2,87,29.70,10.0,West,5.8,-,N/A,,Overcast,260,2013-10-20 06:35:00
1:55 AM,33.8,30.2,87,29.71,10.0,WSW,4.6,-,N/A,,Mostly Cloudy,240,2013-10-20 06:55:00
2:15 AM,33.8,30.2,87,29.71,10.0,WSW,3.5,-,N/A,,Scattered Clouds,250,2013-10-20 07:15:00
2:35 AM,33.8,30.2,87,29.71,10.0,WSW,4.6,-,N/A,,Partly Cloudy,250,2013-10-20 07:35:00
2:55 AM,33.8,30.2,87,29.71,10.0,WSW,4.6,-,N/A,,Partly Cloudy,240,2013-10-20 07:55:00
3:15 AM,33.8,28.4,81,29.71,10.0,WSW,3.5,-,N/A,,Partly Cloudy,240,2013-10-20 08:15:00
3:35 AM,33.8,28.4,81,29.70,10.0,WSW,3.5,-,N/A,,Clear,240,2013-10-20 08:35:00
3:55 AM,32.0,28.4,87,29.70,10.0,Calm,Calm,-,N/A,,Clear,0,2013-10-20 08:55:00
4:15 AM,32.0,28.4,87,29.71,10.0,SW,4.6,-,N/A,,Clear,220,2013-10-20 09:15:00
4:35 AM,32.0,28.4,87,29.71,10.0,Calm,Calm,-,N/A,,Clear,0,2013-10-20 09:35:00
4:55 AM,32.0,28.4,87,29.71,10.0,Calm,Calm,-,N/A,,Clear,0,2013-10-20 09:55:00
5:15 AM,30.2,28.4,93,29.71,10.0,SW,3.5,-,N/A,,Clear,230,2013-10-20 10:15:00
5:35 AM,30.2,28.4,93,29.71,10.0,Calm,Calm,-,N/A,,Clear,0,2013-10-20 10:35:00
5:55 AM,30.2,26.6,86,29.71,10.0,Calm,Calm,-,N/A,,Clear,0,2013-10-20 10:55:00
6:15 AM,30.2,26.6,86,29.72,10.0,Calm,Calm,-,N/A,,Clear,0,2013-10-20 11:15:00
6:35 AM,30.2,26.6,86,29.72,10.0,Calm,Calm,-,N/A,,Clear,0,2013-10-20 11:35:00
6:55 AM,32.0,28.4,87,29.72,10.0,Calm,Calm,-,N/A,,Clear,0,2013-10-20 11:55:00
7:15 AM,30.2,26.6,86,29.72,6.0,Calm,Calm,-,N/A,,Partly Cloudy,0,2013-10-20 12:15:00
7:35 AM,30.2,28.4,93,29.72,5.0,Calm,Calm,-,N/A,,Mostly Cloudy,0,2013-10-20 12:35:00
7:55 AM,32.0,28.4,87,29.73,6.0,South,4.6,-,N/A,,Scattered Clouds,180,2013-10-20 12:55:00
8:15 AM,32.0,28.4,87,29.73,3.0,South,3.5,-,N/A,,Overcast,180,2013-10-20 13:15:00
8:35 AM,33.8,28.4,81,29.74,10.0,Calm,Calm,-,N/A,,Mostly Cloudy,0,2013-10-20 13:35:00
8:55 AM,33.8,28.4,81,29.74,7.0,South,5.8,-,N/A,,Overcast,180,2013-10-20 13:55:00
9:15 AM,33.8,30.2,87,29.74,10.0,South,5.8,-,N/A,,Mostly Cloudy,190,2013-10-20 14:15:00
9:35 AM,33.8,30.2,87,29.73,10.0,South,6.9,-,N/A,,Mostly Cloudy,170,2013-10-20 14:35:00
9:55 AM,35.6,32.0,87,29.73,10.0,South,5.8,-,N/A,,Overcast,180,2013-10-20 14:55:00
10:15 AM,35.6,32.0,87,29.73,10.0,South,8.1,-,N/A,,Mostly Cloudy,190,2013-10-20 15:15:00
10:35 AM,37.4,33.8,87,29.73,10.0,South,4.6,-,N/A,,Mostly Cloudy,180,2013-10-20 15:35:00
10:55 AM,37.4,30.2,75,29.73,10.0,SSE,5.8,-,N/A,,Scattered Clouds,160,2013-10-20 15:55:00
11:15 AM,37.4,32.0,81,29.72,10.0,SSE,4.6,-,N/A,,Partly Cloudy,160,2013-10-20 16:15:00
11:35 AM,39.2,32.0,75,29.72,10.0,South,4.6,-,N/A,,Scattered Clouds,180,2013-10-20 16:35:00
11:55 AM,39.2,33.8,81,29.71,10.0,SE,5.8,-,N/A,,Scattered Clouds,140,2013-10-20 16:55:00
12:15 PM,39.2,32.0,75,29.71,10.0,South,5.8,-,N/A,,Mostly Cloudy,190,2013-10-20 17:15:00
12:35 PM,41.0,30.2,65,29.70,10.0,South,8.1,-,N/A,,Overcast,180,2013-10-20 17:35:00
12:55 PM,41.0,30.2,65,29.70,10.0,South,4.6,-,N/A,,Overcast,190,2013-10-20 17:55:00
1:15 PM,41.0,30.2,65,29.69,10.0,SSE,4.6,-,N/A,,Overcast,160,2013-10-20 18:15:00
1:35 PM,42.8,30.2,61,29.68,10.0,SSE,4.6,-,N/A,,Overcast,160,2013-10-20 18:35:00
1:55 PM,42.8,30.2,61,29.68,10.0,South,6.9,-,N/A,,Overcast,170,2013-10-20 18:55:00
2:15 PM,42.8,30.2,61,29.67,10.0,South,6.9,-,N/A,,Overcast,170,2013-10-20 19:15:00
2:35 PM,42.8,30.2,61,29.67,10.0,SSW,9.2,-,N/A,,Overcast,200,2013-10-20 19:35:00
2:55 PM,39.2,30.2,70,29.68,7.0,South,5.8,-,N/A,,Overcast,190,2013-10-20 19:55:00
3:15 PM,37.4,30.2,75,29.68,9.0,South,5.8,-,0.01,,Overcast,190,2013-10-20 20:15:00
3:35 PM,37.4,30.2,75,29.68,10.0,Calm,Calm,-,0.01,,Overcast,0,2013-10-20 20:35:00
3:55 PM,37.4,30.2,75,29.68,10.0,Calm,Calm,-,0.02,,Overcast,0,2013-10-20 20:55:00
4:15 PM,37.4,30.2,75,29.68,7.0,East,3.5,-,0.02,,Mostly Cloudy,90,2013-10-20 21:15:00
4:35 PM,37.4,30.2,75,29.68,7.0,East,3.5,-,0.03,,Overcast,80,2013-10-20 21:35:00
4:55 PM,35.6,30.2,81,29.68,9.0,East,5.8,-,0.04,,Overcast,100,2013-10-20 21:55:00
5:15 PM,35.6,30.2,81,29.68,9.0,ENE,4.6,-,0.01,,Overcast,70,2013-10-20 22:15:00
5:35 PM,35.6,30.2,81,29.68,9.0,ENE,4.6,-,0.03,,Overcast,70,2013-10-20 22:35:00
5:55 PM,35.6,30.2,81,29.68,7.0,ENE,3.5,-,0.05,,Overcast,70,2013-10-20 22:55:00
6:15 PM,33.8,30.2,87,29.68,4.0,Calm,Calm,-,0.01,,Overcast,0,2013-10-20 23:15:00
6:35 PM,33.8,28.4,81,29.68,4.0,Calm,Calm,-,0.02,,Overcast,0,2013-10-20 23:35:00
6:55 PM,33.8,28.4,81,29.68,4.0,Calm,Calm,-,0.03,,Overcast,0,2013-10-20 23:55:00
7:15 PM,33.8,28.4,81,29.68,2.0,Calm,Calm,-,N/A,,Overcast,0,2013-10-21 00:15:00
7:35 PM,33.8,28.4,81,29.68,2.0,Calm,Calm,-,N/A,,Overcast,0,2013-10-21 00:35:00
7:55 PM,33.8,28.4,81,29.68,2.5,Calm,Calm,-,N/A,,Overcast,0,2013-10-21 00:55:00
8:15 PM,33.8,28.4,81,29.68,3.0,Calm,Calm,-,N/A,,Overcast,0,2013-10-21 01:15:00
8:35 PM,33.8,28.4,81,29.67,5.0,Calm,Calm,-,N/A,,Overcast,0,2013-10-21 01:35:00
8:55 PM,33.8,28.4,81,29.67,5.0,Calm,Calm,-,N/A,,Overcast,0,2013-10-21 01:55:00
9:15 PM,33.8,28.4,81,29.67,8.0,Calm,Calm,-,0.01,,Overcast,0,2013-10-21 02:15:00
9:35 PM,33.8,28.4,81,29.67,5.0,Calm,Calm,-,0.01,,Overcast,0,2013-10-21 02:35:00
9:55 PM,33.8,30.2,87,29.67,6.0,Calm,Calm,-,0.02,,Overcast,0,2013-10-21 02:55:00
10:15 PM,33.8,30.2,87,29.67,9.0,Calm,Calm,-,0.01,,Overcast,0,2013-10-21 03:15:00
10:35 PM,33.8,28.4,81,29.67,7.0,Calm,Calm,-,0.02,,Overcast,0,2013-10-21 03:35:00
10:55 PM,33.8,30.2,87,29.67,4.0,Calm,Calm,-,0.02,,Overcast,0,2013-10-21 03:55:00
11:15 PM,33.8,30.2,87,29.66,5.0,Calm,Calm,-,0.01,,Overcast,0,2013-10-21 04:15:00
11:35 PM,33.8,30.2,87,29.66,9.0,WSW,5.8,-,0.02,,Overcast,240,2013-10-21 04:35:00
11:55 PM,33.8,30.2,87,29.66,10.0,WSW,6.9,-,0.03,,Overcast,240,2013-10-21 04:55:00